Weather History for North Myrtle Beach, SC

Change the Weather History Date:

Wednesday, June 19, 2013

  Actual Average Record
Temperature  
Mean Temperature 77 °F 78 °F  
Max Temperature 80 °F 85 °F 97 °F (2011)
Min Temperature 73 °F 70 °F 60 °F (2008)
Degree Days  
Heating Degree Days 0 0  
Month to date heating degree days 0 0  
Since 1 June heating degree days 0 0  
Since 1 July heating degree days 2416 2447  
Cooling Degree Days 12 13  
Month to date cooling degree days 238 205  
Year to date cooling degree days 418 417  
Since 1 June cooling degree days 238 205  
Growing Degree Days 26 (Base 50)    
Moisture  
Dew Point 71 °F    
Average Humidity 84    
Maximum Humidity 94    
Minimum Humidity 74    
Precipitation  
Precipitation T in 0.15 in 1.23 in (2003)
Month to date precipitation 4.61 2.90  
Year to date precipitation 22.05 20.30  
Sea Level Pressure  
Sea Level Pressure 29.97 in    
Wind  
Wind Speed 7 mph (NNE)    
Max Wind Speed 15 mph    
Max Gust Speed 20 mph    
Visibility 10 miles    
Events Rain    
T = Trace of Precipitation, MM = Missing Value Source: NWS Daily Summary

Daily Weather History Graph

Daily Weather History Graph

Search for Another Location

Airport:

Trip Planner

Search our weather history database for the weather conditions in past years. The results will help you decide how hot, cold, wet, or windy it might be!

Date:

Astronomy

Jun. 19, 2013 Rise Set
Actual Time 6:04 AM EDT 8:28 PM EDT
Civil Twilight 5:35 AM EDT 8:57 PM EDT
Nautical Twilight 4:59 AM EDT 9:33 PM EDT
Astronomical Twilight 4:19 AM EDT 10:12 PM EDT
Moon 4:26 PM EDT (6/19) 2:38 AM EDT (6/19)
Length of Visible Light 15h 22m
Length of Day
14h 24m
Waxing Gibbous, 80% of the Moon is Illuminated
Jun 19
Waxing Gibbous
Jun 23
Full
Jun 30
Last Quarter
Jul 8
New
Jul 15
First Quarter

Hourly Weather History & Observations

Time (EDT) Temp. Dew Point Humidity Pressure Visibility Wind Dir Wind Speed Gust Speed Precip Events Conditions
12:53 AM 79.0 °F 73.9 °F 84% 29.90 in 10.0 mi WSW 12.7 mph - N/A   Clear
1:53 AM 77.0 °F 72.0 °F 84% 29.89 in 10.0 mi Calm Calm - N/A   Mostly Cloudy
2:53 AM 79.0 °F 75.0 °F 88% 29.88 in 10.0 mi SW 11.5 mph 17.3 mph 0.00 in   Mostly Cloudy
3:53 AM 79.0 °F 75.9 °F 90% 29.87 in 9.0 mi SW 9.2 mph - N/A   Partly Cloudy
4:53 AM 78.1 °F 75.0 °F 90% 29.88 in 10.0 mi WSW 8.1 mph - N/A   Scattered Clouds
5:19 AM 75.2 °F 73.4 °F 94% 29.89 in 10.0 mi Variable 3.5 mph - N/A   Mostly Cloudy
5:46 AM 75.2 °F 73.4 °F 94% 29.90 in 10.0 mi Variable 5.8 mph - N/A   Overcast
5:53 AM 75.0 °F 73.0 °F 94% 29.91 in 10.0 mi WNW 3.5 mph - N/A   Overcast
6:10 AM 75.2 °F 71.6 °F 89% 29.91 in 10.0 mi Variable 3.5 mph - N/A   Mostly Cloudy
6:17 AM 75.2 °F 71.6 °F 89% 29.91 in 10.0 mi Calm Calm - N/A   Scattered Clouds
6:53 AM 75.0 °F 72.0 °F 90% 29.92 in 10.0 mi WNW 3.5 mph - N/A   Clear
7:53 AM 75.9 °F 71.1 °F 85% 29.94 in 10.0 mi Variable 3.5 mph - N/A   Clear
8:39 AM 75.2 °F 71.6 °F 89% 29.96 in 10.0 mi NNW 4.6 mph - N/A   Overcast
8:53 AM 77.0 °F 71.1 °F 82% 29.96 in 10.0 mi NW 6.9 mph - N/A   Overcast
9:53 AM 77.0 °F 71.1 °F 82% 29.97 in 10.0 mi NNW 5.8 mph - N/A   Overcast
10:46 AM 75.2 °F 69.8 °F 83% 29.99 in 8.0 mi North 6.9 mph - 0.00 in Rain Light Rain
10:53 AM 75.9 °F 71.1 °F 85% 29.99 in 10.0 mi North 5.8 mph - 0.00 in Rain Light Rain
11:09 AM 77.0 °F 71.6 °F 83% 29.99 in 10.0 mi North 5.8 mph - 0.00 in   Scattered Clouds
11:27 AM 77.0 °F 71.6 °F 83% 29.99 in 10.0 mi North 3.5 mph - 0.00 in   Mostly Cloudy
11:53 AM 75.9 °F 70.0 °F 82% 30.00 in 10.0 mi NNE 8.1 mph - 0.00 in   Overcast
12:53 PM 78.1 °F 69.1 °F 74% 30.00 in 10.0 mi North 6.9 mph - N/A   Mostly Cloudy
1:03 PM 78.8 °F 69.8 °F 74% 30.00 in 10.0 mi North 8.1 mph - N/A   Scattered Clouds
1:17 PM 78.8 °F 69.8 °F 74% 29.99 in 10.0 mi NNE 5.8 mph - N/A   Mostly Cloudy
1:44 PM 77.0 °F 69.8 °F 78% 30.00 in 10.0 mi NE 6.9 mph - 0.00 in Rain Light Rain
1:53 PM 78.1 °F 69.1 °F 74% 30.00 in 10.0 mi NNE 6.9 mph - 0.00 in   Overcast
2:17 PM 77.0 °F 69.8 °F 78% 29.99 in 10.0 mi NNE 6.9 mph - N/A   Mostly Cloudy
2:43 PM 78.8 °F 69.8 °F 74% 29.99 in 10.0 mi NNE 8.1 mph - N/A   Overcast
2:53 PM 79.0 °F 70.0 °F 74% 30.00 in 10.0 mi North 9.2 mph - N/A   Overcast
3:53 PM 78.1 °F 69.1 °F 74% 30.00 in 10.0 mi NNE 5.8 mph - N/A   Overcast
4:01 PM 78.8 °F 69.8 °F 74% 29.99 in 10.0 mi NNE 6.9 mph - N/A   Overcast
4:14 PM 78.8 °F 69.8 °F 74% 29.99 in 10.0 mi NNE 8.1 mph - N/A   Mostly Cloudy
4:53 PM 77.0 °F 69.1 °F 76% 30.00 in 10.0 mi NE 6.9 mph - N/A   Mostly Cloudy
5:33 PM 75.2 °F 69.8 °F 83% 30.00 in 10.0 mi NNE 8.1 mph - N/A   Mostly Cloudy
5:53 PM 75.9 °F 69.1 °F 79% 30.01 in 10.0 mi NNE 5.8 mph - N/A   Overcast
6:53 PM 75.9 °F 69.1 °F 79% 30.02 in 10.0 mi NNE 4.6 mph - N/A   Overcast
7:11 PM 75.2 °F 69.8 °F 83% 30.02 in 10.0 mi NNE 8.1 mph - N/A   Overcast
7:53 PM 75.0 °F 69.1 °F 82% 30.02 in 10.0 mi ENE 10.4 mph - N/A   Overcast
8:53 PM 75.0 °F 68.0 °F 79% 30.03 in 10.0 mi East 6.9 mph - N/A   Overcast
9:53 PM 73.9 °F 68.0 °F 82% 30.07 in 10.0 mi NE 8.1 mph - N/A   Overcast
10:53 PM 73.9 °F 68.0 °F 82% 30.07 in 10.0 mi ENE 8.1 mph - 0.00 in   Overcast
11:53 PM 73.9 °F 69.1 °F 85% 30.09 in 10.0 mi ENE 10.4 mph - 0.00 in Rain Light Rain